W4CPD Weather Reports


Display with metric or nautical units.
time (UTC)temp
F
wind
direction
speed
MPH
gust
MPH
rain 1hr
in
rain 24hr
in
rain mn
in
humidity
%
barometer
mb
20260510204528 87 169 4.0 10.0 0.00 0.22 0.13 66 1016.4
20260510204015 87 188 4.0 10.0 0.01 0.22 0.13 67 1016.5
20260510203514 87 168 2.0 7.0 0.01 0.22 0.13 68 1016.4
20260510203033 87 227 2.0 12.0 0.01 0.22 0.13 71 1016.4
20260510202513 87 182 6.0 12.0 0.01 0.22 0.13 67 1016.4
20260510202016 87 181 3.0 10.0 0.01 0.22 0.13 69 1016.3
20260510201531 87 177 5.0 10.0 0.01 0.22 0.13 69 1016.5
20260510201014 87 278 4.0 9.0 0.01 0.22 0.13 69 1016.5
20260510200516 86 180 3.0 9.0 0.01 0.22 0.13 72 1016.5
20260510200028 86 0 3.0 11.0 0.01 0.22 0.13 70 1016.4
20260510195512 86 190 5.0 11.0 0.01 0.23 0.13 72 1016.5
20260510195013 85 195 3.0 7.0 0.01 0.23 0.13 73 1016.3
20260510194537 85 192 2.0 7.0 0.01 0.23 0.13 74 1016.4
20260510194012 85 161 4.0 7.0 0.00 0.22 0.12 71 1016.4
20260510193515 85 204 2.0 6.0 0.00 0.22 0.12 73 1016.6
20260510193033 84 248 1.0 6.0 0.01 0.22 0.12 71 1016.6
20260510192516 84 0 2.0 6.0 0.01 0.22 0.12 72 1016.6
20260510192014 84 193 0.0 4.0 0.01 0.22 0.12 72 1016.6
20260510191531 83 273 0.0 4.0 0.01 0.22 0.12 73 1016.6
20260510191014 83 0 1.0 4.0 0.01 0.22 0.12 73 1016.7
20260510190514 83 273 0.0 4.0 0.01 0.22 0.12 72 1016.8
20260510190045 83 273 0.0 4.0 0.01 0.22 0.12 74 1016.9
20260510185516 82 272 1.0 5.0 0.01 0.23 0.12 75 1017.1
20260510185015 82 272 2.0 6.0 0.01 0.23 0.12 74 1017.1
20260510184532 82 0 2.0 6.0 0.01 0.23 0.12 74 1017.1
20260510184013 82 302 1.0 5.0 0.01 0.23 0.12 75 1017.1
20260510183520 82 336 1.0 5.0 0.01 0.23 0.12 76 1017.2
20260510183030 82 336 1.0 5.0 0.00 0.22 0.11 73 1017.2
20260510182516 82 342 2.0 7.0 0.00 0.22 0.11 74 1017.2
20260510182012 82 248 3.0 8.0 0.00 0.22 0.11 74 1017.2
20260510181528 82 302 1.0 8.0 0.01 0.22 0.11 76 1017.2
20260510181016 82 346 3.0 6.0 0.01 0.22 0.11 76 1017.2
20260510180515 82 191 0.0 3.0 0.01 0.22 0.11 78 1017.2
20260510180030 82 0 0.0 3.0 0.01 0.22 0.11 73 1017.3
20260510175516 82 191 1.0 3.0 0.01 0.24 0.11 75 1017.2
20260510175015 81 303 1.0 3.0 0.01 0.24 0.11 75 1017.2
20260510174531 81 306 1.0 9.0 0.01 0.24 0.11 75 1017.2
20260510174015 81 306 4.0 9.0 0.01 0.24 0.11 76 1017.4
20260510173516 81 336 1.0 6.0 0.01 0.24 0.11 77 1017.4
20260510173029 81 338 3.0 6.0 0.01 0.24 0.11 77 1017.5
20260510172513 81 296 1.0 5.0 0.01 0.24 0.11 77 1017.5
20260510172014 81 44 2.0 8.0 0.00 0.23 0.10 79 1017.5
20260510171531 81 5 3.0 8.0 0.00 0.23 0.10 75 1017.7
20260510171014 81 255 1.0 4.0 0.01 0.23 0.10 77 1017.8
20260510170523 81 254 2.0 4.0 0.01 0.23 0.10 78 1017.9
20260510170034 80 254 2.0 5.0 0.01 0.23 0.10 78 1017.9
20260510165515 80 254 1.0 5.0 0.01 0.23 0.10 80 1018.0
20260510165016 79 309 2.0 8.0 0.01 0.23 0.10 78 1017.9
20260510164534 79 305 2.0 8.0 0.01 0.23 0.10 79 1018.0
20260510164015 79 321 1.0 6.0 0.01 0.23 0.10 81 1017.9
20260510163514 79 169 0.0 6.0 0.01 0.23 0.10 80 1017.9
20260510163039 79 169 1.0 6.0 0.01 0.23 0.10 81 1017.9
20260510162513 78 133 1.0 5.0 0.01 0.23 0.10 82 1017.8
20260510162015 78 130 1.0 5.0 0.01 0.23 0.10 82 1017.8
20260510161535 77 127 1.0 5.0 0.01 0.23 0.10 87 1017.9
20260510161013 77 166 1.0 4.0 0.00 0.22 0.09 86 1018.0
20260510160513 76 180 1.0 4.0 0.00 0.22 0.09 85 1018.0
20260510160031 76 0 1.0 4.0 0.01 0.22 0.09 87 1018.0
20260510155513 75 180 2.0 5.0 0.01 0.23 0.09 87 1017.9
20260510155017 75 181 1.0 5.0 0.01 0.23 0.09 88 1017.8
20260510154533 75 246 1.0 4.0 0.01 0.23 0.09 88 1017.9
20260510154014 74 0 1.0 4.0 0.01 0.23 0.09 90 1017.9
20260510153515 74 140 1.0 4.0 0.01 0.23 0.09 91 1017.9
20260510153052 74 0 0.0 4.0 0.01 0.23 0.09 92 1018.0
20260510152513 73 9 1.0 4.0 0.01 0.23 0.09 91 1018.0
20260510152017 73 15 0.0 3.0 0.01 0.23 0.09 93 1018.0
20260510151534 72 0 0.0 5.0 0.01 0.23 0.09 94 1018.0
20260510151016 72 16 3.0 5.0 0.01 0.23 0.09 94 1018.0
20260510150514 72 19 1.0 4.0 0.01 0.23 0.09 95 1017.9
20260510150040 71 49 1.0 3.0 0.00 0.22 0.08 97 1018.1
20260510145515 71 0 0.0 3.0 0.00 0.23 0.08 97 1018.1
20260510145016 71 36 1.0 4.0 0.00 0.23 0.08 97 1018.2
20260510144541 70 333 2.0 4.0 0.01 0.23 0.08 98 1018.2
20260510144016 70 337 1.0 4.0 0.01 0.23 0.08 98 1018.2
20260510143517 70 5 1.0 3.0 0.01 0.23 0.08 99 1018.3
20260510143035 70 37 0.0 3.0 0.01 0.23 0.08 99 1018.3
20260510142518 70 0 1.0 3.0 0.01 0.23 0.08 99 1018.3
20260510142014 69 32 0.0 3.0 0.01 0.23 0.08 99 1018.2
20260510141530 69 30 1.0 4.0 0.01 0.23 0.08 100 1018.1
20260510141014 69 0 1.0 4.0 0.01 0.23 0.08 100 1018.0
20260510140514 69 30 2.0 4.0 0.01 0.23 0.08 100 1018.0
20260510140034 69 0 0.0 4.0 0.01 0.23 0.08 100 1018.0
20260510135514 69 32 1.0 4.0 0.01 0.23 0.08 100 1018.0
20260510135015 69 30 2.0 4.0 0.01 0.23 0.08 100 1018.0
20260510134533 69 0 1.0 3.0 0.00 0.22 0.07 100 1017.9
20260510134014 68 0 1.0 3.0 0.00 0.22 0.07 100 1017.8
20260510133515 68 99 0.0 3.0 0.00 0.22 0.07 100 1017.7
20260510133030 68 0 0.0 4.0 0.00 0.22 0.07 100 1017.7
20260510132522 68 0 1.0 5.0 0.00 0.22 0.07 100 1017.8
20260510132018 68 76 1.0 5.0 0.00 0.22 0.07 100 1017.8
20260510131533 67 137 0.0 4.0 0.01 0.22 0.07 100 1017.7
20260510131027 67 0 2.0 4.0 0.01 0.22 0.07 100 1017.7
20260510130513 67 69 0.0 5.0 0.01 0.22 0.07 100 1017.7
20260510130028 66 71 0.0 5.0 0.01 0.22 0.07 100 1017.7
20260510125514 66 63 1.0 5.0 0.01 0.23 0.07 100 1017.6
20260510125015 66 60 1.0 5.0 0.01 0.23 0.07 100 1017.6
20260510124533 66 60 1.0 4.0 0.01 0.23 0.07 100 1017.6
20260510124015 66 79 1.0 4.0 0.01 0.23 0.07 100 1017.5
20260510123513 65 0 0.0 4.0 0.01 0.23 0.07 100 1017.4
20260510123033 65 0 1.0 4.0 0.01 0.23 0.07 100 1017.4
20260510122514 65 0 0.0 3.0 0.01 0.23 0.07 100 1017.3
20260510122018 65 76 1.0 3.0 0.00 0.22 0.06 100 1017.2
20260510121528 65 76 1.0 3.0 0.00 0.22 0.06 100 1016.9
20260510121016 65 0 0.0 2.0 0.00 0.22 0.06 100 1017.0
20260510120514 65 0 0.0 2.0 0.00 0.22 0.06 100 1017.0
20260510120034 64 0 0.0 2.0 0.01 0.22 0.06 99 1016.8
20260510115512 64 0 1.0 2.0 0.01 0.23 0.06 99 1016.8
20260510115015 64 0 0.0 0.0 0.01 0.23 0.06 99 1016.7
20260510114530 64 0 0.0 0.0 0.01 0.23 0.06 99 1016.6
20260510114017 64 0 0.0 2.0 0.01 0.23 0.06 99 1016.6
20260510113513 64 0 0.0 2.0 0.01 0.23 0.06 99 1016.6
20260510113027 64 0 0.0 3.0 0.01 0.23 0.06 99 1016.4
20260510112517 64 0 1.0 4.0 0.01 0.23 0.06 99 1016.4
20260510112014 64 0 0.0 4.0 0.01 0.23 0.06 99 1016.4
20260510111534 64 76 2.0 4.0 0.01 0.23 0.06 99 1016.4
20260510111014 64 81 1.0 4.0 0.01 0.23 0.06 99 1016.3
20260510110514 64 81 1.0 4.0 0.01 0.23 0.06 99 1016.2
20260510110030 64 81 2.0 4.0 0.00 0.22 0.05 99 1016.1
20260510105514 64 82 2.0 4.0 0.01 0.23 0.05 99 1016.0
20260510105015 65 82 0.0 2.0 0.01 0.23 0.05 99 1015.9
20260510104529 65 0 0.0 1.0 0.01 0.23 0.05 99 1015.8
20260510104013 65 0 0.0 1.0 0.01 0.23 0.05 99 1015.8
20260510103515 65 0 0.0 0.0 0.01 0.23 0.05 99 1015.8
20260510103029 65 0 0.0 2.0 0.01 0.23 0.05 99 1015.8
20260510102513 65 0 0.0 2.0 0.01 0.23 0.05 99 1015.6
20260510102013 65 0 0.0 4.0 0.01 0.23 0.05 99 1015.6
20260510101530 65 0 1.0 4.0 0.01 0.23 0.05 99 1015.4
20260510101013 65 82 0.0 3.0 0.01 0.23 0.05 99 1015.3
20260510100518 65 82 1.0 3.0 0.01 0.23 0.05 99 1015.3
20260510100046 65 82 0.0 3.0 0.01 0.23 0.05 99 1015.4
20260510095515 65 0 0.0 3.0 0.00 0.22 0.04 99 1015.3
20260510095015 65 82 0.0 3.0 0.00 0.22 0.04 99 1015.2
20260510094546 65 82 1.0 3.0 0.00 0.22 0.04 99 1015.1
20260510094016 65 82 1.0 3.0 0.01 0.22 0.04 99 1014.9
20260510093513 65 0 0.0 4.0 0.01 0.22 0.04 99 1015.0
20260510093029 65 82 1.0 4.0 0.01 0.22 0.04 99 1014.9
20260510092514 65 82 0.0 3.0 0.01 0.22 0.04 99 1015.1
20260510092014 65 0 0.0 3.0 0.01 0.22 0.04 99 1015.1
20260510091530 65 82 1.0 3.0 0.01 0.22 0.04 99 1014.9
20260510091013 65 82 1.0 3.0 0.01 0.22 0.04 99 1014.7
20260510090515 66 82 0.0 2.0 0.01 0.22 0.04 99 1014.9
20260510090041 66 82 0.0 4.0 0.01 0.22 0.04 99 1014.6
20260510085516 66 82 2.0 4.0 0.01 0.23 0.04 99 1014.5
20260510085019 66 0 0.0 3.0 0.01 0.23 0.04 99 1014.4
20260510084532 66 88 1.0 3.0 0.01 0.23 0.04 99 1014.3
20260510084016 66 88 1.0 3.0 0.00 0.22 0.03 99 1014.3
20260510083514 66 0 0.0 0.0 0.01 0.22 0.03 99 1014.3
20260510083030 66 0 0.0 0.0 0.01 0.22 0.03 99 1014.2
20260510082514 66 0 0.0 0.0 0.01 0.22 0.03 99 1014.3
20260510082014 66 0 0.0 0.0 0.01 0.22 0.03 99 1014.2
20260510081543 66 0 0.0 1.0 0.01 0.22 0.03 99 1014.3
20260510081017 66 0 0.0 1.0 0.01 0.22 0.03 99 1014.1
20260510080516 66 0 0.0 1.0 0.01 0.22 0.03 99 1014.0
20260510080032 66 0 0.0 0.0 0.01 0.22 0.03 99 1014.0
20260510075517 66 0 0.0 1.0 0.01 0.23 0.03 99 1014.1
20260510075014 66 0 0.0 1.0 0.01 0.23 0.03 99 1014.0
20260510074534 66 88 0.0 1.0 0.01 0.23 0.03 99 1013.8
20260510074016 66 0 0.0 2.0 0.01 0.23 0.03 99 1013.9
20260510073516 66 0 0.0 2.0 0.00 0.22 0.02 99 1014.0
20260510073033 66 0 0.0 2.0 0.00 0.22 0.02 99 1013.8
20260510072515 66 88 0.0 2.0 0.01 0.22 0.02 99 1013.8
20260510072016 66 0 0.0 2.0 0.01 0.22 0.02 99 1013.7
20260510071537 67 0 0.0 0.0 0.01 0.22 0.02 99 1013.8
20260510071017 67 0 0.0 0.0 0.01 0.22 0.02 99 1013.8
20260510070515 67 0 0.0 0.0 0.01 0.22 0.02 99 1013.8
20260510070036 67 0 0.0 0.0 0.01 0.22 0.02 99 1013.9
20260510065514 67 0 0.0 0.0 0.01 0.23 0.02 99 1013.9
20260510065016 67 0 0.0 0.0 0.01 0.23 0.02 99 1014.1
20260510064528 67 0 0.0 0.0 0.01 0.23 0.02 99 1014.1
20260510064015 67 0 0.0 0.0 0.01 0.23 0.02 99 1014.1
20260510063516 67 0 0.0 0.0 0.01 0.23 0.02 99 1014.1
20260510063035 67 0 0.0 0.0 0.02 0.23 0.02 99 1014.3
20260510062513 66 0 0.0 0.0 0.01 0.22 0.01 99 1014.4
20260510062019 67 0 0.0 0.0 0.01 0.22 0.01 99 1014.5
20260510061532 67 0 0.0 0.0 0.01 0.22 0.01 99 1014.5
20260510061015 67 0 0.0 0.0 0.01 0.22 0.01 99 1014.4
20260510060515 67 0 0.0 0.0 0.01 0.22 0.01 99 1014.3
20260510060028 67 0 0.0 0.0 0.01 0.22 0.01 99 1014.4
20260510055513 67 0 0.0 0.0 0.01 0.22 0.01 99 1014.6
20260510055013 67 0 0.0 0.0 0.01 0.22 0.01 99 1014.6
20260510054530 67 0 0.0 0.0 0.01 0.22 0.01 99 1014.6
20260510054017 67 0 0.0 0.0 0.01 0.22 0.01 99 1014.4
20260510053513 67 0 0.0 0.0 0.00 0.21 0.00 99 1014.4
20260510053036 67 0 0.0 0.0 0.01 0.21 0.00 99 1014.3
20260510052513 68 0 0.0 0.0 0.01 0.21 0.00 99 1014.1
20260510052014 68 0 0.0 0.0 0.01 0.21 0.00 99 1014.1
20260510051531 67 0 0.0 0.0 0.01 0.21 0.00 99 1014.4
20260510051015 67 0 0.0 0.0 0.01 0.21 0.00 99 1014.4
20260510050516 67 0 0.0 0.0 0.01 0.21 0.00 99 1014.4
20260510050031 68 0 0.0 0.0 0.01 0.21 0.00 99 1014.4
20260510045516 68 0 0.0 0.0 0.01 0.22 0.21 99 1014.6
20260510045014 68 0 0.0 0.0 0.01 0.22 0.21 99 1014.9
20260510044534 68 0 0.0 0.0 0.01 0.22 0.21 99 1015.0
20260510044012 68 0 0.0 0.0 0.01 0.22 0.21 99 1015.0
20260510043515 68 0 0.0 0.0 0.01 0.22 0.21 99 1015.0
20260510043028 68 0 0.0 0.0 0.01 0.21 0.20 99 1015.1
20260510042515 68 0 0.0 0.0 0.01 0.21 0.20 99 1015.0
20260510042015 68 0 0.0 0.0 0.01 0.21 0.20 99 1015.1
20260510041528 68 0 0.0 2.0 0.01 0.21 0.20 99 1015.3
20260510041016 68 0 0.0 2.0 0.01 0.21 0.20 99 1015.2
20260510040515 68 0 0.0 2.0 0.01 0.21 0.20 99 1015.2
20260510040032 68 0 0.0 2.0 0.01 0.21 0.20 99 1015.3
20260510035514 68 0 0.0 2.0 0.01 0.22 0.20 99 1015.3
20260510035016 68 0 0.0 3.0 0.01 0.22 0.20 99 1015.4
20260510034531 68 69 0.0 3.0 0.01 0.22 0.20 99 1015.6
20260510034015 68 69 0.0 3.0 0.01 0.22 0.20 99 1015.5
20260510033513 68 0 0.0 3.0 0.01 0.22 0.20 99 1015.4
20260510033030 68 69 1.0 3.0 0.00 0.21 0.19 99 1015.3
20260510032513 68 0 0.0 0.0 0.01 0.21 0.19 99 1015.1
20260510032017 68 0 0.0 0.0 0.01 0.21 0.19 99 1014.7
20260510031528 68 0 0.0 3.0 0.01 0.21 0.19 99 1014.7
20260510031016 68 0 0.0 5.0 0.01 0.21 0.19 99 1014.7
20260510030515 68 0 0.0 5.0 0.01 0.21 0.19 99 1014.7
20260510030034 68 20 1.0 5.0 0.01 0.21 0.19 99 1014.7
20260510025515 68 97 0.0 4.0 0.01 0.22 0.19 99 1014.9
20260510025015 68 98 1.0 4.0 0.01 0.22 0.19 99 1014.8
20260510024530 68 100 0.0 3.0 0.01 0.22 0.19 99 1014.9
20260510024015 68 194 1.0 3.0 0.01 0.22 0.19 99 1015.0
20260510023513 68 0 0.0 0.0 0.01 0.22 0.19 99 1014.9
20260510023028 68 0 0.0 0.0 0.02 0.22 0.19 99 1014.8
20260510022514 68 0 0.0 0.0 0.01 0.21 0.18 99 1014.8
20260510022014 68 0 0.0 0.0 0.01 0.21 0.18 99 1014.7
20260510021533 68 0 0.0 0.0 0.01 0.21 0.18 99 1014.9
20260510021014 68 0 0.0 0.0 0.01 0.21 0.18 99 1014.7
20260510020520 68 0 0.0 0.0 0.01 0.21 0.18 99 1014.9
20260510020036 68 0 0.0 0.0 0.01 0.21 0.18 99 1014.9
20260510015515 68 0 0.0 0.0 0.01 0.22 0.18 99 1015.0
20260510015018 68 0 0.0 0.0 0.01 0.22 0.18 99 1014.9
20260510014531 68 0 0.0 0.0 0.01 0.22 0.18 99 1015.0
20260510014015 68 0 0.0 0.0 0.01 0.22 0.18 99 1015.1
20260510013515 68 0 0.0 0.0 0.01 0.22 0.18 99 1014.9
20260510013030 68 0 0.0 0.0 0.01 0.21 0.17 99 1014.8
20260510012513 68 0 0.0 0.0 0.01 0.21 0.17 99 1014.8
20260510012017 68 0 0.0 3.0 0.01 0.21 0.17 99 1014.9
20260510011539 68 0 0.0 3.0 0.01 0.21 0.17 99 1015.2
20260510011013 68 194 0.0 2.0 0.01 0.21 0.17 99 1015.1
20260510010514 68 194 0.0 2.0 0.01 0.21 0.17 99 1015.0
20260510010032 68 0 0.0 0.0 0.01 0.21 0.17 99 1014.7
20260510005515 68 0 0.0 0.0 0.01 0.22 0.17 99 1014.4
20260510005016 68 0 0.0 0.0 0.01 0.22 0.17 99 1014.1
20260510004532 68 0 0.0 1.0 0.01 0.22 0.17 99 1014.2
20260510004014 68 0 0.0 1.0 0.02 0.22 0.17 99 1014.3
20260510003514 68 0 0.0 1.0 0.02 0.22 0.17 99 1014.3
20260510003031 68 0 0.0 0.0 0.01 0.21 0.16 99 1014.1
20260510002514 68 0 0.0 0.0 0.01 0.21 0.16 99 1014.0
20260510002015 68 0 0.0 1.0 0.01 0.21 0.16 99 1013.9
20260510001528 68 0 0.0 1.0 0.01 0.21 0.16 99 1013.8
20260510001016 68 194 0.0 1.0 0.01 0.21 0.16 99 1013.7
20260510000514 68 0 0.0 2.0 0.01 0.21 0.16 99 1013.5
20260510000054 69 0 0.0 2.0 0.01 0.21 0.16 99 1013.5
20260509235518 69 0 0.0 2.0 0.01 0.22 0.16 99 1013.6
20260509235019 69 0 0.0 2.0 0.01 0.22 0.16 99 1013.8
20260509234547 69 194 0.0 2.0 0.01 0.21 0.15 99 1013.7
20260509234015 69 0 0.0 3.0 0.01 0.21 0.15 99 1013.8
20260509233517 69 0 0.0 3.0 0.01 0.21 0.15 99 1014.0
20260509233031 69 0 1.0 5.0 0.01 0.21 0.15 99 1014.0
20260509232516 69 194 1.0 6.0 0.01 0.21 0.15 99 1014.0
20260509232015 69 0 1.0 6.0 0.01 0.21 0.15 99 1013.9
20260509231528 69 156 1.0 5.0 0.01 0.21 0.15 99 1014.1
20260509231013 69 156 1.0 3.0 0.01 0.21 0.15 99 1014.0
20260509230513 69 0 0.0 2.0 0.01 0.21 0.15 99 1014.1
20260509230036 69 156 0.0 2.0 0.01 0.21 0.15 99 1013.9
20260509225516 69 156 0.0 5.0 0.01 0.22 0.15 99 1014.0
20260509225014 69 156 1.0 5.0 0.01 0.22 0.15 98 1013.7
20260509224533 69 156 1.0 5.0 0.00 0.21 0.14 98 1013.9
20260509224015 69 277 0.0 3.0 0.00 0.21 0.14 98 1013.8
20260509223515 69 0 0.0 3.0 0.01 0.21 0.14 98 1013.7
20260509223028 69 277 0.0 3.0 0.01 0.21 0.14 99 1013.8
20260509222514 69 0 0.0 2.0 0.01 0.21 0.14 98 1013.8
20260509222014 69 0 0.0 0.0 0.01 0.21 0.14 98 1013.8
20260509221530 69 0 0.0 0.0 0.01 0.21 0.14 98 1013.7
20260509221015 69 0 0.0 1.0 0.01 0.21 0.14 98 1013.6
20260509220514 69 0 0.0 4.0 0.01 0.21 0.14 98 1013.8
20260509220032 69 0 0.0 4.0 0.01 0.21 0.14 98 1013.7
20260509215516 69 0 0.0 0.0 0.01 0.22 0.14 98 1013.9
20260509215017 69 0 0.0 1.0 0.01 0.22 0.14 98 1013.6
20260509214535 69 0 0.0 1.0 0.02 0.22 0.14 98 1013.3
20260509214015 69 0 0.0 3.0 0.02 0.22 0.14 98 1013.4
20260509213513 69 0 0.0 3.0 0.01 0.21 0.13 98 1013.4
20260509213030 69 277 1.0 3.0 0.01 0.21 0.13 98 1013.6
20260509212514 69 277 0.0 4.0 0.01 0.21 0.13 98 1013.4
20260509212015 69 277 1.0 4.0 0.01 0.21 0.13 98 1013.5
20260509211529 69 0 1.0 6.0 0.01 0.21 0.13 98 1013.5
20260509211013 69 277 1.0 6.0 0.01 0.21 0.13 98 1013.4
20260509210514 69 298 0.0 3.0 0.01 0.21 0.13 98 1013.4
20260509210040 69 301 0.0 5.0 0.01 0.21 0.13 98 1013.1
20260509205513 69 301 1.0 6.0 0.01 0.22 0.13 98 1013.4
20260509205012 69 0 2.0 7.0 0.01 0.22 0.13 98 1013.3